TimeEST,TemperatureF,Dew PointF,Humidity,Sea Level PressureIn,VisibilityMPH,Wind Direction,Wind SpeedMPH,Gust SpeedMPH,PrecipitationIn,Events,Conditions,WindDirDegrees,DateUTC
12:52 AM,42.1,37.9,85,29.94,10.0,Calm,Calm,-,N/A,,Clear,0,2014-01-15 05:52:00
1:52 AM,37.9,35.1,89,29.94,10.0,Calm,Calm,-,N/A,,Clear,0,2014-01-15 06:52:00
2:52 AM,35.1,34.0,96,29.93,10.0,SE,3.5,-,N/A,,Clear,140,2014-01-15 07:52:00
3:38 AM,32.0,32.0,100,29.93,1.8,Calm,Calm,-,N/A,,Clear,0,2014-01-15 08:38:00
3:47 AM,33.8,33.8,100,29.93,3.0,Calm,Calm,-,N/A,,Clear,0,2014-01-15 08:47:00
3:52 AM,34.0,34.0,100,29.94,7.0,Calm,Calm,-,N/A,,Clear,0,2014-01-15 08:52:00
4:52 AM,33.1,33.1,100,29.92,7.0,NW,5.8,-,N/A,,Clear,320,2014-01-15 09:52:00
5:52 AM,30.9,30.0,96,29.93,7.0,South,3.5,-,N/A,,Clear,180,2014-01-15 10:52:00
6:52 AM,28.0,27.0,96,29.93,7.0,Calm,Calm,-,N/A,,Clear,0,2014-01-15 11:52:00
7:52 AM,30.9,30.9,100,29.94,7.0,NW,3.5,-,N/A,,Clear,320,2014-01-15 12:52:00
8:52 AM,35.1,35.1,100,29.96,10.0,Calm,Calm,-,N/A,,Clear,0,2014-01-15 13:52:00
9:52 AM,41.0,36.0,82,29.96,10.0,WSW,3.5,-,N/A,,Partly Cloudy,250,2014-01-15 14:52:00
10:52 AM,46.0,36.0,68,29.94,10.0,Calm,Calm,-,N/A,,Partly Cloudy,0,2014-01-15 15:52:00
11:52 AM,52.0,34.0,50,29.91,10.0,Variable,4.6,-,N/A,,Partly Cloudy,0,2014-01-15 16:52:00
12:52 PM,55.9,35.1,45,29.87,10.0,Variable,6.9,-,N/A,,Scattered Clouds,0,2014-01-15 17:52:00
1:52 PM,57.0,34.0,42,29.85,10.0,SSW,8.1,-,N/A,,Scattered Clouds,210,2014-01-15 18:52:00
2:52 PM,57.0,33.1,40,29.84,10.0,WSW,11.5,18.4,N/A,,Mostly Cloudy,240,2014-01-15 19:52:00
3:52 PM,54.0,33.1,45,29.85,10.0,West,4.6,-,N/A,,Mostly Cloudy,280,2014-01-15 20:52:00
4:52 PM,48.9,34.0,56,29.88,10.0,NW,13.8,20.7,N/A,,Overcast,310,2014-01-15 21:52:00
5:52 PM,43.0,36.0,76,29.91,10.0,NNW,10.4,-,0.00,Rain,Light Rain,340,2014-01-15 22:52:00
6:52 PM,42.1,33.1,70,29.93,10.0,North,5.8,-,0.00,,Overcast,360,2014-01-15 23:52:00
7:52 PM,42.1,33.1,70,29.94,10.0,North,8.1,-,N/A,,Overcast,10,2014-01-16 00:52:00
8:52 PM,41.0,33.1,73,29.94,10.0,North,8.1,-,N/A,,Overcast,10,2014-01-16 01:52:00
9:52 PM,37.9,33.1,83,29.95,10.0,North,5.8,-,N/A,,Mostly Cloudy,360,2014-01-16 02:52:00
10:52 PM,37.0,33.1,86,29.96,10.0,NNE,4.6,-,N/A,,Mostly Cloudy,20,2014-01-16 03:52:00
11:52 PM,33.1,30.0,89,29.96,10.0,North,4.6,-,N/A,,Partly Cloudy,360,2014-01-16 04:52:00